星链-31018 (STARLINK-31018 )

导读 | 星芒AI

STARLINK-31018 是 SpaceX Starlink 卫星互联网项目中的一颗低轨卫星,属于第三代星链卫星(v1.5)。该卫星于2023年发射,运行在约540公里高的近地轨道,旨在为全球提供高速、低延迟的宽带互联网服务。它采用先进的推进系统和激光通信技术,支持与其他星链卫星的高速数据传输,提升网络效率与覆盖范围。作为星链计划的重要组成部分,STARLINK-31018 有助于扩展 SpaceX 在全球卫星互联网市场的影响力。

基本信息
目录编号:
58635
目录名称:
STARLINK-31018
国际标识:
2023-203T
轨道中心:
EARTH
卫星名称:
星链-31018
卫星全名:
星链-31018 (STARLINK-31018 )
卫星状态:
在轨 (已飞行678 天)
发射日期:
2023-12-23 UTC
国别 :
美国 (US)
星等 :
--
轨道信息
数据来源 国际轨道数据
星历时间: 2025-10-31T01:43:42+0800
19小时前
查看轨道信息
半长轴: 6861.214km
偏心率: 0.0001438
轨道倾角: 43.000°
近地点辐角 266.950°
升交点赤经 81.286°
平近点角 93.118°
近地点: 482.092km
远地点: 484.066km
周期: 94.267分钟
每日圈数: 15.275709
详细信息
固有亮度:
5
最大亮度:
0.3
卫星平台:
Starlink v2.0 mini
覆盖范围:
全球
运营商:
太空探索技术公司
运营商所在国:
美国
制造商(研发单位):
太空探索技术公司
制造商所在国:
美国
使用方式:
暂无
卫星简介
星链(Starlink)计划是由太空探索技术公司(SpaceX)提出的一个巨型低轨卫星互联网星座项目,计划在2019年至2024年间在太空搭建由约1.2万颗卫星组成的“星链”网络,其中1584颗将部署在地球上空550千米处的近地轨道,并从2020年开始工作。该卫星仍在工作。
2D轨道图
3D轨道图
轨道高度分析图
轨道倾角分析图
轨道综合分析图
查看轨道综合分析图